GW1946 Weather Reports


Display with metric or nautical units.
time (UTC)temp
F
wind
direction
speed
MPH
gust
MPH
rain 1hr
in
rain 24hr
in
rain mn
in
humidity
%
barometer
mb
20260502214050 66 263 4.0 10.0 0.00 0.00 0.00 31 1010.8
20260502213550 66 288 4.0 10.0 0.00 0.00 0.00 32 1010.9
20260502213053 65 196 3.0 10.0 0.00 0.00 0.00 34 1010.9
20260502212550 65 286 3.0 11.0 0.00 0.00 0.00 33 1011.0
20260502212050 64 257 4.0 11.0 0.00 0.00 0.00 35 1011.1
20260502211557 63 262 3.0 13.0 0.00 0.00 0.00 35 1011.2
20260502211053 63 179 5.0 13.0 0.00 0.00 0.00 33 1011.2
20260502210553 64 261 4.0 12.0 0.00 0.00 0.00 31 1011.3
20260502210054 64 281 6.0 12.0 0.00 0.00 0.00 32 1011.4
20260502205549 65 257 3.0 14.0 0.00 0.00 0.00 33 1011.5
20260502205049 65 224 3.0 14.0 0.00 0.00 0.00 33 1011.5
20260502204553 65 204 2.0 13.0 0.00 0.00 0.00 32 1011.6
20260502204050 64 196 3.0 15.0 0.00 0.00 0.00 34 1011.7
20260502203550 64 274 5.0 15.0 0.00 0.00 0.00 34 1011.8
20260502203054 64 192 5.0 13.0 0.00 0.00 0.00 31 1011.8
20260502202550 64 235 2.0 15.0 0.00 0.00 0.00 36 1011.9
20260502202050 64 225 6.0 15.0 0.00 0.00 0.00 34 1012.1
20260502201558 63 190 5.0 11.0 0.00 0.00 0.00 36 1012.1
20260502201050 63 283 5.0 11.0 0.00 0.00 0.00 37 1012.2
20260502200550 63 230 5.0 12.0 0.00 0.00 0.00 33 1012.3
20260502200139 63 249 4.0 12.0 0.00 0.00 0.00 35 1012.4
20260502195550 63 268 3.0 10.0 0.00 0.00 0.00 34 1012.6
20260502195050 63 304 2.0 10.0 0.00 0.00 0.00 36 1012.7
20260502194554 62 198 3.0 10.0 0.00 0.00 0.00 36 1012.9
20260502194052 62 279 2.0 11.0 0.00 0.00 0.00 35 1012.9
20260502193549 62 275 4.0 12.0 0.00 0.00 0.00 33 1013.0
20260502193057 62 229 4.0 12.0 0.00 0.00 0.00 35 1013.1
20260502192551 61 173 4.0 11.0 0.00 0.00 0.00 35 1013.1
20260502192050 61 0 2.0 11.0 0.00 0.00 0.00 37 1013.4
20260502191602 61 313 3.0 11.0 0.00 0.00 0.00 35 1013.5
20260502191053 61 242 2.0 12.0 0.00 0.00 0.00 35 1013.5
20260502190551 60 267 5.0 12.0 0.00 0.00 0.00 33 1013.7
20260502190054 61 275 5.0 12.0 0.00 0.00 0.00 34 1013.8
20260502185553 60 251 3.0 14.0 0.00 0.00 0.00 38 1013.8
20260502185050 60 306 5.0 14.0 0.00 0.00 0.00 35 1013.9
20260502184557 60 278 6.0 14.0 0.00 0.00 0.00 35 1013.9
20260502184050 59 172 3.0 14.0 0.00 0.00 0.00 34 1014.0
20260502183550 59 262 5.0 12.0 0.00 0.00 0.00 34 1014.1
20260502183052 59 274 3.0 12.0 0.00 0.00 0.00 42 1014.0
20260502182551 59 307 6.0 12.0 0.00 0.00 0.00 34 1014.2
20260502182050 59 162 5.0 12.0 0.00 0.00 0.00 35 1014.3
20260502181552 58 267 6.0 12.0 0.00 0.00 0.00 33 1014.3
20260502181051 59 252 5.0 13.0 0.00 0.00 0.00 38 1014.5
20260502180551 59 311 7.0 13.0 0.00 0.00 0.00 35 1014.6
20260502164050 56 288 5.0 14.0 0.00 0.00 0.00 41 1015.7
20260502163551 55 290 6.0 14.0 0.00 0.00 0.00 37 1015.7
20260502163102 56 263 7.0 14.0 0.00 0.00 0.00 38 1015.8
20260502162551 56 0 4.0 13.0 0.00 0.00 0.00 41 1015.8
20260502162049 56 260 4.0 13.0 0.00 0.00 0.00 37 1016.0
20260502161558 55 263 4.0 13.0 0.00 0.00 0.00 40 1016.0
20260502161049 55 234 4.0 13.0 0.00 0.00 0.00 40 1016.0
20260502160549 55 294 6.0 15.0 0.00 0.00 0.00 40 1016.0
20260502152051 53 262 4.0 13.0 0.00 0.00 0.00 46 1016.3
20260502151557 53 229 5.0 13.0 0.00 0.00 0.00 43 1016.3
20260502151051 53 240 6.0 13.0 0.00 0.00 0.00 45 1016.3
20260502150550 53 309 6.0 12.0 0.00 0.00 0.00 47 1016.3
20260502150109 52 287 6.0 12.0 0.00 0.00 0.00 45 1016.4
20260502130551 41 169 0.0 3.0 0.00 0.00 0.00 81 1016.9
20260502130111 40 0 0.0 3.0 0.00 0.00 0.00 84 1016.9
20260502123549 34 0 0.0 1.0 0.00 0.00 0.00 96 1016.9
20260502123103 33 0 0.0 1.0 0.00 0.00 0.00 96 1016.9
20260502122549 32 0 0.0 0.0 0.00 0.00 0.00 96 1016.8
20260502122050 31 0 0.0 0.0 0.00 0.00 0.00 95 1016.8
20260502121558 30 0 0.0 0.0 0.00 0.00 0.00 95 1016.7
20260502121050 30 0 0.0 0.0 0.00 0.00 0.00 95 1016.8
20260502120549 30 0 0.0 0.0 0.00 0.00 0.00 95 1016.8
20260502115549 29 0 0.0 0.0 0.00 0.00 0.00 94 1016.8
20260502115054 29 0 0.0 0.0 0.00 0.00 0.00 94 1016.8
20260502114605 29 0 0.0 0.0 0.00 0.00 0.00 94 1016.7
20260502114050 29 0 0.0 0.0 0.00 0.00 0.00 94 1016.6
20260502113550 29 0 0.0 0.0 0.00 0.00 0.00 94 1016.6
20260502113057 29 0 0.0 0.0 0.00 0.00 0.00 94 1016.5
20260502112549 29 0 0.0 0.0 0.00 0.00 0.00 94 1016.5
20260502112049 29 0 0.0 0.0 0.00 0.00 0.00 93 1016.5
20260502111558 29 0 0.0 0.0 0.00 0.00 0.00 93 1016.5
20260502111050 29 0 0.0 0.0 0.00 0.00 0.00 94 1016.5
20260502110551 29 0 0.0 0.0 0.00 0.00 0.00 93 1016.6
20260502110055 29 0 0.0 0.0 0.00 0.00 0.00 93 1016.6
20260502105551 29 0 0.0 0.0 0.00 0.00 0.00 93 1016.6
20260502105050 29 0 0.0 0.0 0.00 0.00 0.00 93 1016.5
20260502104558 29 0 0.0 0.0 0.00 0.00 0.00 93 1016.6
20260502104049 29 0 0.0 0.0 0.00 0.00 0.00 93 1016.5
20260502103550 29 0 0.0 0.0 0.00 0.00 0.00 93 1016.6
20260502103054 29 0 0.0 0.0 0.00 0.00 0.00 93 1016.5
20260502102550 29 0 0.0 0.0 0.00 0.00 0.00 93 1016.5
20260502102050 29 0 0.0 0.0 0.00 0.00 0.00 93 1016.5
20260502101605 30 0 0.0 0.0 0.00 0.00 0.00 93 1016.5
20260502101049 30 0 0.0 0.0 0.00 0.00 0.00 93 1016.5
20260502100549 30 0 0.0 0.0 0.00 0.00 0.00 93 1016.6
20260502091052 29 0 0.0 0.0 0.00 0.00 0.00 92 1016.5
20260502090549 30 0 0.0 0.0 0.00 0.00 0.00 92 1016.5
20260502080105 30 0 0.0 0.0 0.00 0.00 0.00 91 1016.6
20260502071049 30 0 0.0 0.0 0.00 0.00 0.00 90 1016.6
20260502070550 30 0 0.0 0.0 0.00 0.00 0.00 89 1016.7
20260502070057 30 0 0.0 0.0 0.00 0.00 0.00 89 1016.6
20260502065550 30 0 0.0 0.0 0.00 0.00 0.00 88 1016.7
20260502065050 30 0 0.0 0.0 0.00 0.00 0.00 88 1016.7
20260502064558 31 0 0.0 0.0 0.00 0.00 0.00 88 1016.7
20260502064050 31 0 0.0 0.0 0.00 0.00 0.00 88 1016.8
20260502063550 31 0 0.0 0.0 0.00 0.00 0.00 87 1016.8
20260502063114 31 0 0.0 0.0 0.00 0.00 0.00 87 1016.8
20260502062549 31 0 0.0 0.0 0.00 0.00 0.00 87 1016.9
20260502062050 31 0 0.0 0.0 0.00 0.00 0.00 87 1016.9
20260502061559 31 0 0.0 0.0 0.00 0.00 0.00 87 1016.9
20260502061049 31 0 0.0 0.0 0.00 0.00 0.00 87 1017.0
20260502060549 31 0 0.0 0.0 0.00 0.00 0.00 87 1017.0
20260502060059 32 0 0.0 0.0 0.00 0.00 0.00 86 1017.1
20260502055550 32 0 0.0 0.0 0.00 0.00 0.00 86 1017.1
20260502055050 32 0 0.0 0.0 0.00 0.00 0.00 86 1017.1
20260502054601 32 0 0.0 0.0 0.00 0.00 0.00 86 1017.1
20260502054050 32 0 0.0 0.0 0.00 0.00 0.00 86 1017.2
20260502053550 32 0 0.0 0.0 0.00 0.00 0.00 84 1017.1
20260502053059 32 0 0.0 0.0 0.00 0.00 0.00 84 1017.1
20260502052549 32 0 0.0 0.0 0.00 0.00 0.00 83 1017.1
20260502052050 32 0 0.0 0.0 0.00 0.00 0.00 82 1017.1
20260502051554 33 0 0.0 0.0 0.00 0.00 0.00 82 1017.1
20260502051050 33 0 0.0 0.0 0.00 0.00 0.00 82 1016.9
20260502050550 33 0 0.0 0.0 0.00 0.00 0.00 82 1016.8
20260502050053 33 0 0.0 0.0 0.00 0.00 0.00 82 1016.8
20260502045550 34 0 0.0 0.0 0.00 0.00 0.00 81 1016.8
20260502045050 34 0 0.0 0.0 0.00 0.00 0.00 81 1016.8
20260502044552 34 0 0.0 0.0 0.00 0.00 0.00 80 1016.8
20260502044053 34 0 0.0 0.0 0.00 0.00 0.00 80 1016.9
20260502043549 34 0 0.0 0.0 0.00 0.00 0.00 80 1016.9
20260502043058 35 0 0.0 0.0 0.00 0.00 0.00 79 1016.9
20260502042550 35 0 0.0 0.0 0.00 0.00 0.00 79 1017.0
20260502042051 35 0 0.0 0.0 0.00 0.00 0.00 78 1016.9
20260502041556 35 0 0.0 1.0 0.00 0.00 0.00 77 1016.9
20260502041049 35 0 0.0 1.0 0.00 0.00 0.00 76 1017.1
20260502040549 36 0 0.0 1.0 0.00 0.00 0.00 77 1017.0
20260502035550 36 0 0.0 0.0 0.00 0.00 0.00 75 1017.0
20260502035049 36 0 0.0 0.0 0.00 0.00 0.00 75 1017.1
20260502034555 36 0 0.0 0.0 0.00 0.00 0.00 75 1017.0
20260502034049 36 0 0.0 0.0 0.00 0.00 0.00 73 1017.0
20260502033550 37 0 0.0 0.0 0.00 0.00 0.00 72 1017.0
20260502033052 37 0 0.0 0.0 0.00 0.00 0.00 71 1016.9
20260502032549 37 0 0.0 0.0 0.00 0.00 0.00 70 1017.0
20260502032049 38 0 0.0 0.0 0.00 0.00 0.00 70 1017.0
20260502031553 38 0 0.0 0.0 0.00 0.00 0.00 68 1017.1
20260502031050 39 0 0.0 0.0 0.00 0.00 0.00 69 1016.9
20260502030550 39 0 0.0 0.0 0.00 0.00 0.00 66 1017.0
20260502030054 39 0 0.0 0.0 0.00 0.00 0.00 65 1016.9
20260502025549 39 0 0.0 0.0 0.00 0.00 0.00 64 1017.0
20260502025053 40 0 0.0 1.0 0.00 0.00 0.00 65 1017.0
20260502024552 40 0 0.0 1.0 0.00 0.00 0.00 64 1017.0
20260502024050 40 0 0.0 0.0 0.00 0.00 0.00 63 1016.9
20260502023550 41 0 0.0 0.0 0.00 0.00 0.00 62 1017.1
20260502023053 41 0 0.0 0.0 0.00 0.00 0.00 61 1017.0
20260502022550 42 0 0.0 0.0 0.00 0.00 0.00 60 1017.0
20260502022051 43 0 0.0 0.0 0.00 0.00 0.00 58 1016.8
20260502021553 44 0 0.0 0.0 0.00 0.00 0.00 57 1016.8
20260502021049 44 0 0.0 0.0 0.00 0.00 0.00 55 1016.6
20260502020549 45 0 0.0 0.0 0.00 0.00 0.00 54 1016.6
20260502020054 46 0 0.0 0.0 0.00 0.00 0.00 48 1016.6
20260502015550 47 0 0.0 0.0 0.00 0.00 0.00 46 1016.5
20260502015050 47 0 0.0 0.0 0.00 0.00 0.00 44 1016.4
20260502014553 47 0 0.0 1.0 0.00 0.00 0.00 45 1016.4
20260502014049 48 0 0.0 2.0 0.00 0.00 0.00 44 1016.3
20260502013553 48 0 0.0 4.0 0.00 0.00 0.00 44 1016.4
20260502013054 48 0 0.0 4.0 0.00 0.00 0.00 42 1016.3
20260502012550 48 0 0.0 4.0 0.00 0.00 0.00 43 1016.3
20260502012050 49 0 0.0 3.0 0.00 0.00 0.00 42 1016.3
20260502011550 49 287 0.0 4.0 0.00 0.00 0.00 41 1016.3
20260502011049 49 284 1.0 4.0 0.00 0.00 0.00 42 1016.3
20260502010550 49 0 2.0 6.0 0.00 0.00 0.00 41 1016.3
20260502010053 49 350 1.0 6.0 0.00 0.00 0.00 41 1016.3
20260502005551 50 345 1.0 5.0 0.00 0.00 0.00 39 1016.3
20260502005049 50 306 1.0 4.0 0.00 0.00 0.00 40 1016.3
20260502004551 50 334 0.0 5.0 0.00 0.00 0.00 40 1016.3
20260502004051 50 344 2.0 5.0 0.00 0.00 0.00 36 1016.2
20260502003549 50 342 2.0 6.0 0.00 0.00 0.00 37 1016.2
20260502003052 50 344 2.0 8.0 0.00 0.00 0.00 37 1016.1
20260502002550 50 0 2.0 8.0 0.00 0.00 0.00 39 1016.2
20260502002050 50 336 4.0 8.0 0.00 0.00 0.00 37 1016.1
20260502001549 51 350 1.0 7.0 0.00 0.00 0.00 38 1016.1
20260502001049 51 9 3.0 11.0 0.00 0.00 0.00 36 1016.0
20260502000549 52 14 3.0 11.0 0.00 0.00 0.00 36 1016.0
20260502000100 52 310 5.0 11.0 0.00 0.00 0.00 35 1015.8
20260501235551 52 313 4.0 11.0 0.00 0.00 0.00 35 1016.0
20260501235052 53 274 4.0 11.0 0.00 0.00 0.00 35 1015.9
20260501234552 52 296 4.0 11.0 0.00 0.00 0.00 38 1015.9
20260501234049 52 327 4.0 11.0 0.00 0.00 0.00 36 1016.0
20260501233550 52 314 2.0 9.0 0.00 0.00 0.00 38 1015.9
20260501233050 51 337 3.0 9.0 0.00 0.00 0.00 37 1016.0
20260501232550 51 352 3.0 9.0 0.00 0.00 0.00 36 1015.9
20260501232050 51 352 3.0 7.0 0.00 0.00 0.00 39 1016.0
20260501231609 51 333 3.0 7.0 0.00 0.00 0.00 39 1016.0
20260501231053 50 5 1.0 5.0 0.00 0.00 0.00 40 1016.1
20260501230550 50 28 2.0 8.0 0.00 0.00 0.00 40 1016.0
20260501230057 50 0 4.0 9.0 0.00 0.00 0.00 37 1016.0
20260501225554 51 308 3.0 9.0 0.00 0.00 0.00 36 1016.0
20260501225049 51 333 5.0 9.0 0.00 0.00 0.00 38 1016.0
20260501224602 52 5 1.0 11.0 0.00 0.00 0.00 36 1016.1
20260501224049 52 0 5.0 11.0 0.00 0.00 0.00 36 1016.0
20260501223549 52 17 7.0 11.0 0.00 0.00 0.00 36 1016.0
20260501223053 52 352 5.0 11.0 0.00 0.00 0.00 37 1016.0
20260501222549 52 327 5.0 11.0 0.00 0.00 0.00 38 1016.0
20260501222050 52 292 3.0 12.0 0.00 0.00 0.00 38 1016.0
20260501221642 52 5 4.0 12.0 0.00 0.00 0.00 37 1016.0
20260501221050 52 340 4.0 12.0 0.00 0.00 0.00 37 1016.0
20260501220550 51 292 6.0 12.0 0.00 0.00 0.00 36 1015.9
20260501220056 52 340 6.0 12.0 0.00 0.00 0.00 36 1015.9
20260501215549 52 320 5.0 12.0 0.00 0.00 0.00 36 1015.9
20260501215051 52 327 6.0 11.0 0.00 0.00 0.00 38 1015.8
20260501214553 52 360 1.0 11.0 0.00 0.00 0.00 37 1015.8